Regional Weather Roundup
Issued by NWS

Home | Current Version | Previous Version | Graphics & Text | Print | Product List | Glossary On
Versions: 1 2 3 4 5 6 7 8 9 10 11 12 13 14 15 16 17 18 19 20 21 22 23 24 25 26 27 28 29 30 31 32 33 34 35 36 37 38 39 40 41 42 43 44 45 46 47 48 49 50
629
ASUS43 KMKX 060059
RWRWI

WISCONSIN REGIONAL WEATHER ROUNDUP
NATIONAL WEATHER SERVICE MILWAUKEE/SULLIVAN WI
700 PM CST FRI FEB 05 2016

NOTE: "FAIR" INDICATES FEW OR NO CLOUDS BELOW 12,000 FEET WITH NO
SIGNIFICANT WEATHER AND/OR OBSTRUCTIONS TO VISIBILITY.

WIZ001-002-006>008-014>016-023>028-060200-
NORTHWEST WISCONSIN

CITY           SKY/WX    TMP DP  RH WIND       PRES   REMARKS
SUPERIOR ARPT  CLOUDY    28  14  56 SW12      30.14F WCI  18
ASHLAND        CLOUDY    26  12  55 SW14G22   30.13F WCI  14
HAYWARD        CLOUDY    22  11  62 S16       30.16F WCI   8
SIREN          CLOUDY    24  14  66 S8        30.19S WCI  15
CUMBERLAND     CLOUDY    18  10  73 S6        30.19S WCI   9
RICE LAKE      MOCLDY    17  10  75 CALM      30.22R
CHETEK         CLOUDY    18  11  73 CALM      30.22R
LADYSMITH      MOCLDY    19  12  72 S5        30.22R WCI  13
EAU CLAIRE     NOT AVBL
MENOMONIE      CLOUDY    22  13  67 S6        30.23F WCI  14
NEW RICHMOND   CLOUDY    24  15  67 S9        30.21S WCI  15
OSCEOLA        CLOUDY    26  17  71 S9        30.23S WCI  16
$$

WIZ003>005-009-010-017-018-060200-
NORTH CENTRAL WISCONSIN

CITY           SKY/WX    TMP DP  RH WIND       PRES   REMARKS
MANITOWISH WTR CLOUDY    23  10  56 S9        30.13F WCI  13
ARBOR VITAE    CLOUDY    24  10  53 S8        30.15F WCI  15
WOODRUFF       CLOUDY    24  10  53 S8        30.15F WCI  15
RHINELANDER    CLOUDY    21   9  59 SW9       30.18S WCI  11
EAGLE RIVER    CLOUDY    24   6  47 SW8       30.15S WCI  15
LAND O LAKES   CLOUDY    25  10  53 S9        30.14F WCI  15
PHILLIPS       CLOUDY    20  11  67 S6        30.17S WCI  13
TOMAHAWK       PTCLDY    18  10  71 CALM      30.19F
MEDFORD        PTCLDY    16  11  80 S8        30.19F WCI   5
MERRILL        CLEAR     19  12  74 S3        30.22F
$$

WIZ029-030-035-036-043>047-060200-
CENTRAL WISCONSIN

CITY           SKY/WX    TMP DP  RH WIND       PRES   REMARKS
WAUSAU         CLOUDY    22  12  65 SW5       30.21F WCI  16
MOSINEE        MOCLDY    19  16  86 S7        30.24F WCI  10
MARSHFIELD     CLEAR     21  11  65 S9        30.22F WCI  11
STEVENS POINT  CLOUDY    21  15  76 S6        30.26F WCI  13
WAUPACA        CLOUDY    25  17  73 CALM      30.28F
WAUTOMA        NOT AVBL
WISC RAPIDS    CLOUDY    21  13  71 S6        30.27F WCI  13
CAMP DOUGLAS   NOT AVBL
$$

WIZ011>013-019>022-031-037>040-048>050-060200-
NORTHEAST WISCONSIN

CITY           SKY/WX    TMP DP  RH WIND       PRES   REMARKS
ANTIGO         CLEAR     16   7  66 SW5       30.21S WCI   9
SHAWANO        CLOUDY    26  15  64 CALM      30.27F
OCONTO         CLOUDY    21  15  78 CALM      30.29S
STURGEON BAY   CLOUDY    19  10  68 S7        30.30F WCI  10
GREEN BAY      CLOUDY    21  15  78 S6        30.29F WCI  13
MANITOWOC      NOT AVBL
APPLETON       MOCLDY    23  16  74 S7        30.26F WCI  15
CLINTONVILLE   CLOUDY    23  14  68 S3        30.27F
OSHKOSH        CLOUDY    23  15  71 S6        30.29F WCI  16
$$

WIZ032>034-041-042-053>061-060200-
SOUTHWEST WISCONSIN

CITY           SKY/WX    TMP DP  RH WIND       PRES   REMARKS
LA CROSSE      CLOUDY    25  14  63 S8        30.29S WCI  16
SPARTA         CLOUDY    22  16  75 CALM      30.29F
VIROQUA        CLOUDY    22  14  71 S3        30.26S
BOSCOBEL       CLOUDY    27  18  69 SW3       30.32S
PRAIRIE DU CHI CLOUDY    26  15  61 CALM      30.32R
PLATTEVILLE    PTCLDY    26  21  83 S5        30.31S WCI  20
$$

WIZ056-057-062-063-064-067-068-060200-
SOUTH CENTRAL WISCONSIN

CITY           SKY/WX    TMP DP  RH WIND       PRES   REMARKS
REEDSBURG      CLOUDY    24  17  74 S6        30.29S WCI  17
BARABOO/DELLS  CLOUDY    25  17  72 SW5       30.28F WCI  19
LONE ROCK      CLOUDY    22  15  75 CALM      30.32S
MINERAL POINT  CLOUDY    28  21  74 SW7       30.29S WCI  21
MADISON        CLOUDY    27  15  61 VRB3      30.30F
MIDDLETON      CLOUDY    28  18  68 SW3       30.31F
WATERTOWN      CLOUDY    27  19  74 SW3       30.31S
MONROE         CLOUDY    28  23  80 S5        30.30S WCI  23
JANESVILLE     CLOUDY    30  21  69 SW6       30.32F WCI  24
$$

WIZ051-052-058>065-066-070>072-060200-
SOUTHEAST WISCONSIN

CITY           SKY/WX    TMP DP  RH WIND       PRES   REMARKS
MILWAUKEE      CLOUDY    30  14  51 W6        30.32F WCI  24
WAUKESHA       MOCLDY    27  16  63 CALM      30.32F
MILWAUKEE/TIMM NOT AVBL
RACINE         CLOUDY    29  17  61 W3        30.33F
BURLINGTON     CLOUDY    26  20  78 CALM      30.32F
KENOSHA        CLOUDY    28  20  71 SW5       30.32F WCI  23
FOND DU LAC    CLOUDY    22  15  75 S5        30.30F WCI  16
SHEBOYGAN        N/A     23  15  71 SW6       30.31F WCI  16
WEST BEND      CLOUDY    27  16  63 CALM      30.30F
JUNEAU         CLOUDY    23  15  72 CALM      30.31F
$$

LSZ147-162-060200-
LAKE SUPERIOR

STATION/POSITION TIME  TEMP    WIND        PRES    WAVE
                       AIR SEA DIR/SP/G            HT/PER
                 (UTC) (F)     (DEG/KT/KT) (MB)    (FT/S)
DEVILS ISLAND    0000   29     210/  8/ 10 1021.1F
SAXON HARBOR     0000   29                 1020.7F
$$

LMZ867-665-643>646-060200-
LAKE MICHIGAN

STATION/POSITION TIME  TEMP    WIND        PRES    WAVE
                       AIR SEA DIR/SP/G            HT/PER
                 (UTC) (F)     (DEG/KT/KT) (MB)    (FT/S)
CHAMBERS ISLAND  0000   21     180/  4/  7 1025.4S
NORTHPORT PIER   0000   21     190/  4/  7 1025.4R
ALGOMA LAKESHORE 2326          250/  5/  6   N/A
SHEBOYGAN LAKESH 0000   27     250/  5/  5 1028.1S
PORT WASHINGTON  0000   28     250/  4/  6 1027.8
MILWAUKEE LAKESH 0010   30     280/  4/  5   N/A
KENOSHA   LAKESH 0000   30     260/  7/  9 1027.4S
$$

TC  - TEMPERATURE IN CELSIUS
VSB - VISIBILITY IN STATUTE MILES
WCI - WIND CHILL INDEX
HX  - HEAT INDEX





USA.gov is the U.S. government's official web portal to all federal, state and local government web resources and services.